Regional Weather Roundup
Issued by NWS

Home | Current Version | Previous Version | Text Only | Print | Product List | Glossary Off
Versions: 1 2 3 4 5 6 7 8 9 10 11 12 13 14 15 16 17 18 19 20 21 22 23 24 25 26 27 28 29 30 31 32 33 34 35 36 37 38 39 40 41 42 43 44 45 46 47 48 49 50

000
ASUS45 KCYS 190410
RWRWY

WYOMING REGIONAL WEATHER ROUNDUP
NATIONAL WEATHER SERVICE CHEYENNE WY
1000 PM MDT SAT OCT 18 2014

NOTE:  "FAIR" INDICATES FEW OR NO CLOUDS BELOW 12,000 FEET
WITH NO SIGNIFICANT WEATHER AND/OR OBSTRUCTIONS TO VISIBILITY.

WYZ001-190500-
YELLOWSTONE NATIONAL PARK

CITY           SKY/WX    TMP DP  RH WIND       PRES   REMARKS
LK YELLOWSTONE   N/A     33  27  78 NW3       30.24R
W YELLOWSTONE  NOT AVBL

$$
WYZ002>013-054>058-071-098>099-190500-
NORTHERN WYOMING

CITY           SKY/WX    TMP DP  RH WIND       PRES   REMARKS
JACKSON        CLEAR     41  32  70 N8        30.17R
CODY           CLEAR    N/A N/A N/A CALM      30.06R
GREYBULL       CLEAR     55  30  38 SE6       29.99R
WORLAND        CLEAR     48  31  51 CALM      30.01R
SHERIDAN       CLEAR     47  35  63 S7        30.01R
BUFFALO        CLEAR     52  33  48 W10       30.06R
GILLETTE       PTCLDY    43  35  73 S3        30.01R
HULETT         FAIR      48  34  57 SW3       30.01
NEWCASTLE      FAIR      46  36  66 N10       30.02

$$
WYZ014>020-022>026-101>103-190500-
CENTRAL WYOMING

CITY           SKY/WX    TMP DP  RH WIND       PRES   REMARKS
BIG PINEY      CLEAR     40  25  55 CALM      30.18R
PINEDALE       CLEAR     36  28  75 NW3       30.19R
DUBOIS         FAIR      45  27  49 NW12      30.17R
LANDER         CLEAR     52  32  46 NW3       30.06R
RIVERTON       CLEAR     47  29  49 NW6       30.07R
CASPER         PTCLDY    46  33  60 N8        30.05R
DOUGLAS        PTCLDY    48  37  65 CALM      30.04R

$$
WYZ021-027>030-104>119-190500-
SOUTHERN WYOMING

CITY           SKY/WX    TMP DP  RH WIND       PRES   REMARKS
EVANSTON       PTCLDY    53  29  39 VRB3      30.19S
KEMMERER       CLEAR     45  30  57 W10       30.20R
FORT BRIDGER   FAIR      49  29  45 W8        30.21R
ROCK SPRINGS   PTCLDY    51  26  37 S6        30.16R
DIXON          HAZE      44  29  56 E6        30.19R VSB 1
RAWLINS        PTCLDY    51  27  39 W9        30.15R
SARATOGA       FAIR      39  27  60 S5        30.18S
LARAMIE        PTCLDY    42  28  57 W3        30.17R
CHEYENNE       PTCLDY    45  33  63 W7        30.11S
TORRINGTON     CLEAR     47  38  71 E12       29.99S
PINE BLUFFS    FAIR      43  36  75 W5        30.08R

$$


USA.gov is the U.S. government's official web portal to all federal, state and local government web resources and services.